Home   Weather   Stavern   Past weeks

Flag for Norway Past Weather in Stavern, Norway — Yesterday and Last 2 Weeks

Now
55 °F

Fog.


Feels Like: 55 °F
Forecast: 56 / 63 °F
Wind: 5 mph from South

Location: Torp

Current Time: Jul 28, 2017 at 7:01:49 am

Latest Report: Jul 28, 2017 at 6:20 am


Visibility: N/A

Pressure: 29.56 "Hg

Humidity: 100%

Dew Point: 55 °F

Location of StavernLocation

Past Weather in Stavern — Graph

°F

Stavern Temperature Yesterday

Maximum temperature yesterday: 64 °F (at 8:20 am)
Minimum temperature yesterday: 57 °F (at 3:50 am)
Average temperature yesterday: 62 °F

High & Low Weather Summary for the Past Weeks

 TemperatureHumidityPressure
High75 °F (Jul 23, 1:50 pm)100% (Jul 14, 10:20 pm)30.12 "Hg (Jul 14, 10:20 pm)
Low46 °F (Jul 20, 4:50 am)35% (Jul 16, 6:20 pm)29.53 "Hg (Jul 27, 8:50 pm)
Average62 °F72%29.90 "Hg
* Reported Jul 13 5:20 am — Jul 28 5:50 am, Stavern. Weather by CustomWeather, © 2017

Note: Actual official high and low records may vary slightly from our data, if they occured in-between our weather recording intervals... More about our weather records

Advertising

Stavern Weather History for the Previous 24 Hours

Scroll right to see more
 ConditionsComfort  
Time TempWeatherWind HumidityBarometerVisibility
5:50 am
Fri, Jul 28
55 °FLight fog.2 mph100%29.56 "HgN/A
5:20 am54 °FCool.5 mph100%29.56 "HgN/A
4:50 am55 °FCool.6 mph100%29.56 "HgN/A
4:20 am55 °FCool.5 mph100%29.56 "HgN/A
3:50 am57 °FPartly cloudy.6 mph100%29.56 "HgN/A
3:20 am57 °FPassing clouds.5 mph100%29.53 "HgN/A
2:50 am57 °FCool.6 mph100%29.53 "HgN/A
2:20 am57 °FCool.6 mph100%29.53 "HgN/A
1:50 am59 °FPartly cloudy.6 mph100%29.53 "HgN/A
1:20 am59 °FPassing clouds.7 mph100%29.56 "HgN/A
12:50 am59 °FPassing clouds.7 mph100%29.56 "HgN/A
12:20 am59 °FPassing clouds.7 mph100%29.56 "HgN/A
11:50 pm
Thu, Jul 27
57 °FPassing clouds.5 mph100%29.56 "HgN/A
11:20 pm59 °FPassing clouds.3 mph100%29.56 "HgN/A
10:20 pm59 °FSprinkles. Partly cloudy.7 mph100%29.56 "Hg5 mi
9:50 pm59 °FRain showers. Broken clouds.9 mph100%29.56 "Hg4 mi
9:20 pm61 °FLots of rain. Partly sunny.7 mph100%29.53 "Hg3 mi
8:50 pm61 °FPartly sunny.7 mph100%29.53 "HgN/A
8:20 pm61 °FBroken clouds.5 mph100%29.56 "HgN/A
7:50 pm61 °FScattered clouds.5 mph100%29.56 "HgN/A
7:20 pm61 °FDrizzle. Broken clouds.2 mph100%29.56 "HgN/A
6:50 pm61 °FLight rain. Broken clouds.5 mph100%29.56 "HgN/A
6:20 pm61 °FLight rain. Broken clouds.7 mph100%29.59 "HgN/A
5:50 pm63 °FDrizzle. Broken clouds.9 mph100%29.59 "HgN/A
5:20 pm63 °FBroken clouds.7 mph100%29.59 "HgN/A
4:50 pm63 °FBroken clouds.7 mph100%29.59 "HgN/A
4:20 pm63 °FBroken clouds.7 mph100%29.59 "HgN/A
3:50 pm63 °FBroken clouds.7 mph100%29.59 "HgN/A
3:20 pm63 °FLight rain. Partly sunny.8 mph100%29.59 "HgN/A
2:50 pm63 °FLight rain. Broken clouds.5 mph100%29.59 "HgN/A
2:20 pm63 °FLight rain. Partly sunny.6 mph100%29.59 "HgN/A
1:50 pm63 °FLight rain. Partly sunny.8 mph100%29.59 "HgN/A
1:20 pm63 °FLight rain. Partly sunny.12 mph100%29.59 "HgN/A
12:50 pm64 °FBroken clouds.14 mph100%29.59 "HgN/A
12:20 pm64 °FBroken clouds.13 mph100%29.59 "HgN/A
11:50 am64 °FBroken clouds.9 mph100%29.59 "HgN/A
11:20 am64 °FPartly sunny.9 mph100%29.59 "HgN/A
10:50 am64 °FScattered clouds.9 mph88%29.59 "HgN/A
10:20 am64 °FScattered clouds.10 mph88%29.59 "HgN/A
9:20 am64 °FScattered clouds.6 mph100%29.59 "HgN/A
8:50 am64 °FScattered clouds.5 mph100%29.59 "HgN/A
8:20 am64 °FScattered clouds.6 mph100%29.59 "HgN/A
7:50 am63 °FScattered clouds.5 mph100%29.62 "HgN/A
7:20 am63 °FPassing clouds.3 mph100%29.62 "HgN/A
Weather by CustomWeather, © 2017

See weather overviewHow to use our weather pages